Theta_e
322 323 323 322 322 322 322 323 323 323 324 324 323 324 324 324 324 324 324 324 324 324 324 323 323 322 322 321 321 321 318 325 326 325 323 322 337 346 348 349 351 357 357 349 342 338 336 339 338 344 340 339 336 329 338 333 337 329 320 316 313 315 313 316 315 318 320 319 326 329 330 330 329 335 338 341 337 337 340 340 343 344 345 346 346 347 348 349
322 322 322 322 321 321 322 322 322 322 323 323 323 323 323 323 323 324 324 324 324 323 323 323 322 322 321 320 320 320 320 325 324 322 322 346 347 354 357 349 355 354 355 335 331 333 334 335 332 337 337 330 329 325 326 328 333 323 318 316 312 316 317 321 320 322 320 320 327 329 330 329 330 334 336 334 333 337 338 340 342 341 344 346 346 347 347 347
322 322 322 321 321 321 322 322 322 322 322 323 323 323 323 323 323 323 323 323 323 323 322 321 322 321 321 320 319 319 322 324 326 317 322 345 356 358 355 351 353 355 337 328 328 328 325 328 330 333 331 326 324 321 322 324 327 322 319 313 314 319 319 323 323 322 325 325 327 328 329 330 331 333 333 330 330 333 331 337 339 338 339 343 344 346 346 347
321 321 321 320 320 321 321 322 321 322 322 322 322 322 322 322 322 322 322 322 322 322 322 321 321 320 320 319 320 322 323 325 312 316 336 349 351 354 352 350 352 351 339 331 327 326 330 329 330 329 324 320 320 320 318 321 323 319 318 315 315 321 320 325 326 327 327 328 328 328 329 328 331 331 331 328 328 328 333 339 339 339 340 342 344 345 346 346
321 320 320 320 320 321 321 321 321 321 321 322 322 321 321 321 321 321 321 321 321 321 321 320 320 320 319 319 318 325 323 310 312 332 348 352 355 351 351 354 354 339 338 329 328 330 332 328 326 325 322 319 319 318 318 319 320 319 319 320 321 324 322 327 329 330 330 330 330 328 326 327 333 334 332 331 327 328 335 339 344 343 344 343 343 345 346 345
320 320 319 320 320 320 321 321 321 321 321 321 321 321 321 321 321 320 320 320 320 320 320 320 319 320 319 319 323 326 323 303 316 334 361 359 354 353 353 354 355 343 333 330 327 328 327 325 326 322 319 318 316 317 318 318 319 316 320 323 326 326 325 330 330 330 330 328 327 328 328 331 330 332 336 336 335 338 343 345 346 346 346 346 347 347 345 346
319 319 319 319 319 320 320 320 320 320 320 320 320 320 320 320 320 319 319 319 319 319 319 319 319 319 319 320 322 324 316 314 319 339 363 360 355 352 355 358 353 335 329 326 324 323 324 324 324 320 317 316 316 317 317 317 319 320 319 325 325 327 328 331 330 331 329 328 327 329 330 325 327 328 337 336 341 343 346 348 348 348 349 349 346 347 346 347
319 319 319 319 319 319 319 319 319 319 320 319 320 319 319 320 319 319 319 319 319 319 319 319 319 319 318 323 326 315 313 313 325 349 362 361 355 346 356 339 334 329 327 324 321 323 323 322 322 320 318 316 316 317 319 319 320 320 323 326 328 330 331 332 331 329 328 327 328 328 327 329 332 332 336 336 341 344 346 348 348 348 349 348 347 347 348 349
318 318 318 319 319 319 318 318 319 319 319 319 319 318 319 319 319 319 319 319 319 319 318 318 319 319 321 326 322 314 312 317 327 345 361 353 347 337 336 330 331 326 325 324 324 325 324 324 321 320 316 316 318 316 319 319 318 323 326 328 328 329 331 331 328 328 326 326 328 328 329 332 334 336 334 337 341 345 347 347 348 348 348 347 347 347 349 349
317 318 318 318 318 318 318 318 318 318 318 318 318 318 318 318 318 319 319 318 318 318 318 319 318 319 321 327 317 309 321 342 343 345 347 348 340 338 333 327 327 325 322 322 323 325 324 324 322 320 320 317 318 317 319 319 321 331 328 328 329 330 330 329 326 327 327 328 330 327 328 328 332 329 327 339 341 345 345 345 348 348 347 347 346 347 349 348
317 317 317 318 317 318 317 318 318 318 318 318 318 317 317 318 319 318 318 318 317 318 319 317 320 320 325 325 314 309 330 343 342 340 344 346 340 331 328 327 326 325 321 322 324 327 325 325 323 322 320 317 319 317 319 325 331 331 331 330 330 330 329 328 329 329 332 328 329 329 326 329 329 327 328 337 341 343 342 343 344 345 346 347 347 347 350 350
317 317 317 317 317 317 317 317 317 317 317 317 317 317 318 319 318 318 318 318 317 317 318 320 320 325 327 323 314 315 329 334 342 338 339 338 332 329 327 327 326 324 322 320 326 328 328 325 325 320 315 321 317 323 327 332 331 330 329 325 327 327 324 326 325 326 329 326 330 330 325 323 325 326 335 338 341 340 340 342 342 344 345 345 347 347 350 350
317 317 317 317 317 316 317 316 316 316 316 316 316 316 318 319 318 318 318 318 318 318 319 322 323 327 331 311 315 322 328 341 341 335 333 334 332 332 329 329 328 326 324 324 326 328 328 327 326 319 320 319 316 316 329 334 329 329 324 324 324 322 321 326 328 327 324 330 335 326 311 318 326 332 336 339 340 340 338 339 341 342 345 346 348 348 349 351
317 317 316 316 316 316 316 316 315 315 315 315 315 315 317 318 318 318 318 319 319 319 320 323 327 330 328 314 325 331 335 342 340 334 331 332 328 328 328 328 330 329 329 328 330 331 328 326 326 321 322 319 318 330 329 329 327 320 322 322 318 316 316 325 326 326 323 329 331 328 312 317 327 333 339 340 340 338 336 338 339 341 342 346 348 348 349 351
316 316 316 316 315 316 315 315 315 314 315 314 314 315 317 318 319 320 320 320 319 321 323 325 331 331 324 323 333 338 346 341 333 332 333 330 327 325 327 328 327 329 333 332 330 330 328 327 322 318 318 323 326 324 320 321 323 322 316 312 317 314 317 324 328 325 320 325 328 322 313 316 326 333 340 341 341 339 337 337 338 340 342 344 347 348 348 350
315 315 316 316 315 315 315 315 314 314 314 313 313 314 318 318 321 321 322 324 322 323 328 329 330 329 323 315 330 345 335 327 326 331 332 332 328 324 327 327 328 330 331 329 331 329 326 325 320 320 318 322 321 319 316 316 317 319 313 311 312 314 316 321 325 327 328 325 326 322 315 318 325 335 338 340 339 338 336 335 336 340 342 344 346 348 349 351
315 315 315 315 315 315 315 314 314 314 313 313 312 316 320 323 323 324 325 325 326 327 329 331 331 330 322 323 333 327 323 327 331 329 328 332 329 327 327 325 324 326 328 327 327 326 323 321 320 319 319 317 319 317 312 309 311 313 316 313 315 312 315 314 323 326 327 325 320 321 319 321 327 336 338 339 339 338 335 335 336 339 342 345 348 348 348 351
315 314 314 315 315 315 314 313 313 313 312 312 311 315 323 324 325 325 325 327 330 329 330 334 330 326 316 322 314 319 327 325 326 327 327 329 330 328 325 321 324 325 325 322 324 321 321 318 319 314 315 315 316 314 309 306 309 310 311 312 312 314 314 313 315 322 327 325 320 321 320 322 328 335 337 338 339 337 335 335 337 337 340 344 346 349 349 350
315 314 314 314 314 314 314 313 312 312 312 311 313 316 320 324 327 329 327 330 327 326 317 321 318 310 308 316 321 323 325 327 330 327 324 327 328 328 326 326 325 322 318 318 317 319 320 318 316 314 310 312 312 312 312 312 313 313 312 313 313 311 313 314 316 323 325 321 320 319 319 323 328 333 336 336 338 337 336 337 338 338 339 342 344 345 346 347
315 314 314 314 314 314 313 313 312 312 311 312 325 326 324 326 325 321 324 326 321 318 318 320 322 321 316 318 319 324 328 330 321 323 325 328 326 324 322 323 321 320 317 312 315 318 319 313 309 310 311 313 314 313 314 314 314 314 313 313 313 313 313 316 317 325 328 321 318 320 320 323 326 332 335 336 337 338 337 336 337 337 338 339 341 342 344 346
314 314 314 313 313 313 313 312 312 311 311 313 320 325 318 319 313 311 318 319 325 325 322 321 321 320 319 321 323 322 320 321 324 322 325 330 326 322 319 320 317 313 316 316 314 318 316 311 310 313 313 314 314 315 314 314 313 313 313 311 312 313 312 316 320 327 328 320 320 325 323 324 327 331 334 338 335 333 334 335 336 336 338 339 340 340 343 346
313 313 313 313 313 312 312 311 311 311 310 317 323 324 322 323 324 325 322 315 321 323 322 322 323 321 325 324 325 324 322 317 318 320 327 329 322 316 317 316 314 311 315 316 315 312 311 309 313 314 316 317 316 315 314 314 312 312 311 311 310 311 316 318 320 325 326 321 318 326 323 325 329 332 336 336 332 333 334 336 336 337 337 339 339 341 343 345
313 313 313 313 312 311 311 311 310 309 318 325 325 323 322 327 331 331 326 321 317 322 321 321 319 320 320 324 325 326 317 315 313 319 322 326 319 316 317 314 313 312 313 313 309 308 306 309 314 316 316 314 314 314 313 313 313 312 311 310 308 312 312 310 320 323 326 319 318 326 321 328 333 337 335 337 333 338 341 340 340 341 340 339 339 341 343 343
313 313 313 312 311 310 310 310 309 316 325 315 313 318 327 329 331 328 322 316 314 319 320 321 321 320 319 318 324 322 316 316 317 316 325 324 316 319 315 314 313 313 311 311 311 310 309 312 317 316 315 315 312 313 313 313 311 312 312 311 310 311 313 312 318 322 325 323 326 325 321 325 329 326 330 336 340 338 338 341 342 343 343 344 342 341 344 343
313 313 313 312 310 310 309 307 320 320 315 315 317 324 327 329 332 329 321 318 318 316 325 321 322 322 322 329 327 319 319 318 318 321 323 322 317 317 315 317 315 311 311 311 311 311 311 315 317 314 313 315 313 312 312 311 310 311 312 312 312 312 312 314 322 322 317 317 322 321 310 311 323 324 322 329 335 334 336 335 337 341 342 345 344 346 347 347
313 313 313 311 311 310 308 313 319 313 314 314 321 328 327 325 328 333 322 312 306 314 316 311 323 316 327 319 321 319 319 314 320 321 323 322 326 318 317 314 315 309 310 310 311 313 314 315 315 313 313 314 312 312 313 313 311 310 311 314 313 314 314 316 320 316 308 307 318 323 308 304 316 321 324 327 328 330 335 336 334 338 341 341 343 344 346 347
313 312 312 311 310 308 310 311 318 314 312 318 328 329 325 325 338 330 316 310 303 311 310 317 318 318 323 321 320 321 306 310 321 323 321 325 320 322 313 312 313 315 314 315 313 310 314 313 313 314 313 312 312 311 313 313 311 309 314 316 314 314 316 318 317 313 311 315 322 322 318 307 307 317 326 329 328 328 330 334 335 334 339 338 340 342 346 346
313 312 311 310 309 309 311 314 314 311 311 317 324 323 324 331 337 331 316 301 297 314 310 313 314 321 319 321 322 315 315 318 312 317 322 324 323 317 315 312 310 313 315 314 305 314 314 312 312 311 312 312 311 313 316 316 312 313 317 317 316 317 318 316 315 313 316 315 314 319 320 310 306 314 323 328 325 326 327 331 334 336 338 339 340 340 344 347
312 311 311 310 309 308 312 311 315 312 317 320 320 319 323 334 330 319 308 298 310 312 318 311 319 317 317 321 317 317 316 317 311 317 322 323 323 318 311 314 314 315 316 314 311 311 314 314 315 314 313 311 316 315 315 315 312 316 323 324 323 321 318 316 314 314 314 310 305 311 316 305 305 314 321 326 324 325 327 331 332 335 338 339 338 340 342 347
312 311 310 310 310 315 314 316 314 318 321 320 319 323 329 329 322 307 300 294 312 305 311 312 312 310 316 313 314 315 313 314 317 318 320 318 319 319 316 319 316 315 313 314 313 314 314 318 321 315 313 316 314 314 314 314 317 322 321 319 319 318 318 317 315 314 311 304 306 310 313 309 302 310 313 318 321 325 327 330 333 335 338 341 342 341 342 345
310 310 310 309 310 313 313 308 316 320 321 323 322 325 329 324 312 303 296 304 310 309 311 310 309 315 312 311 308 313 313 314 314 316 314 318 316 316 316 314 317 314 312 312 312 312 314 315 315 317 315 316 317 314 315 317 320 319 315 314 315 314 316 314 312 314 304 301 310 311 311 312 301 306 313 320 324 326 325 326 331 332 335 339 342 341 342 346
309 308 310 309 312 314 308 307 318 319 322 321 325 327 322 309 310 299 298 311 302 307 307 308 311 312 312 313 311 311 311 312 315 314 313 313 313 311 311 309 310 306 306 307 307 313 311 313 316 314 317 316 314 313 314 315 318 315 314 312 306 304 306 301 306 301 300 300 310 311 312 309 308 311 314 317 319 328 329 328 329 334 335 339 342 343 343 346
308 308 308 310 312 312 313 316 321 325 323 317 316 323 314 307 299 305 305 309 304 310 308 312 309 310 311 311 310 311 313 309 314 314 315 314 313 312 313 314 314 311 304 308 308 307 310 313 312 313 315 318 315 310 309 308 313 312 310 309 304 301 299 296 300 302 303 308 311 309 316 306 310 313 319 318 320 324 332 330 331 334 338 340 344 345 343 345
307 308 311 317 315 316 318 324 321 319 315 314 315 316 311 303 300 314 307 308 309 312 310 309 310 311 311 308 309 311 308 312 312 313 314 311 312 310 312 313 313 313 311 310 307 307 303 303 310 311 309 316 315 314 313 312 311 311 313 311 307 306 301 297 300 298 300 303 308 313 306 303 304 310 322 328 328 332 332 334 334 336 338 341 343 344 344 345
306 309 316 318 317 317 318 319 324 323 317 310 314 311 303 302 307 307 306 309 312 313 310 312 308 308 308 309 312 312 312 309 313 312 312 311 309 311 310 311 313 314 313 307 309 309 306 306 312 315 315 316 314 316 316 314 313 314 313 313 309 307 311 302 306 305 304 304 305 307 305 310 310 327 327 327 328 330 329 332 335 337 339 340 341 342 341 344
309 320 320 319 319 323 320 319 319 320 317 312 311 305 303 307 306 309 309 314 313 310 311 311 309 306 306 308 310 310 312 311 311 312 311 311 312 310 313 312 312 313 312 307 310 306 309 306 313 315 316 314 315 316 315 316 305 311 311 307 310 315 312 308 307 306 306 304 301 311 308 310 315 315 316 320 324 325 329 330 330 332 335 338 341 342 343 344
316 318 316 321 321 324 323 322 319 318 315 314 309 304 309 310 313 311 315 312 312 312 311 305 306 306 305 305 307 308 310 311 311 310 307 311 309 312 311 313 315 314 315 313 310 313 307 307 313 312 311 314 316 316 316 314 317 313 306 311 315 316 314 309 302 305 302 299 303 307 304 306 307 303 318 321 318 319 324 330 329 331 334 336 339 343 344 345
314 316 315 317 320 324 325 324 319 315 311 312 307 310 314 309 314 312 315 313 314 313 311 309 308 309 306 306 306 307 310 307 308 309 308 310 307 314 312 312 315 315 315 316 311 311 313 305 310 313 314 313 316 315 312 315 316 313 312 318 308 303 302 309 306 299 300 299 301 305 306 306 307 308 312 315 316 317 322 331 331 330 332 335 339 343 347 347
314 315 312 318 324 325 324 324 317 312 309 308 307 306 312 313 315 314 315 315 314 312 310 311 309 309 310 307 308 309 309 305 309 307 306 308 306 312 312 313 312 315 316 316 311 313 312 305 307 313 313 314 314 313 306 310 314 314 316 313 314 312 309 306 307 307 305 298 299 300 304 301 311 311 313 312 315 317 318 328 331 331 332 334 339 342 345 347
315 309 311 319 325 324 326 320 312 310 308 305 309 308 315 312 314 316 317 315 312 312 311 310 311 309 309 309 310 308 310 309 309 309 308 310 308 312 311 315 313 314 315 316 313 315 310 314 304 310 315 313 307 311 309 311 309 309 310 310 311 310 314 312 311 307 304 301 300 299 298 305 312 316 314 315 316 318 319 324 334 333 334 336 340 342 345 347
316 307 309 320 321 324 321 318 309 304 306 311 313 312 313 310 313 314 316 316 314 316 312 312 312 310 309 309 308 311 309 309 309 308 309 310 310 306 313 314 314 313 314 314 313 314 311 310 304 308 308 307 309 315 314 314 314 312 310 309 311 309 306 303 303 310 308 303 298 300 298 307 315 320 320 316 318 319 321 324 329 334 335 339 341 343 346 346
311 304 309 319 323 323 323 308 307 310 309 309 309 313 312 321 313 313 314 315 313 313 317 312 314 312 312 311 311 311 310 309 310 309 310 309 311 311 314 316 315 315 312 310 310 315 315 313 308 306 308 308 311 315 317 316 315 315 313 312 314 312 311 307 298 304 307 308 307 306 302 305 319 321 321 321 324 322 327 328 329 332 337 339 342 344 347 349
310 306 317 321 323 321 318 310 312 314 312 312 315 313 315 313 312 312 311 312 310 313 312 312 312 311 313 313 311 311 311 309 310 308 310 310 312 313 316 315 316 314 314 313 314 319 321 312 306 306 314 313 314 316 315 314 315 313 314 315 314 311 312 310 308 310 306 307 303 304 302 305 323 331 329 329 333 331 333 334 337 333 335 339 343 344 347 348
310 311 314 320 324 322 317 308 308 309 308 313 313 311 313 312 310 310 310 310 309 310 311 311 313 314 312 314 312 310 313 307 311 311 310 312 311 316 317 315 314 313 313 313 311 315 308 312 308 304 305 306 310 312 312 314 313 312 311 313 314 314 313 312 313 314 306 307 307 303 299 305 323 329 326 329 325 322 323 328 335 336 337 339 343 345 347 350
313 315 313 318 325 319 311 314 312 310 311 311 310 309 309 309 310 310 310 309 311 311 310 311 312 312 313 313 312 312 314 313 309 312 314 314 312 318 316 317 316 314 315 319 333 317 310 312 309 302 298 296 297 297 300 305 308 311 312 312 313 312 312 311 306 309 300 309 310 304 304 310 318 325 322 324 322 325 324 325 328 337 340 340 343 345 348 350
310 308 308 312 317 317 317 317 316 312 312 312 309 309 308 307 309 312 311 311 311 312 312 311 314 314 311 311 311 310 311 313 311 310 313 312 315 315 321 318 317 317 329 333 322 319 311 315 312 308 305 303 306 309 312 313 312 307 309 312 312 313 313 313 311 308 303 311 308 306 309 309 312 316 317 318 319 319 319 323 329 334 337 342 346 348 349 350
313 309 310 307 311 313 314 315 314 312 310 311 307 308 306 307 309 310 312 310 312 312 312 312 311 310 311 311 310 310 311 311 313 313 312 312 314 318 319 327 322 320 333 321 321 318 318 311 313 313 313 311 312 315 314 313 310 310 309 310 312 312 312 311 309 306 317 309 301 312 316 311 311 315 317 318 320 321 322 324 324 333 339 340 343 347 347 349
309 310 313 312 308 306 308 310 313 313 310 310 310 309 307 307 307 308 311 312 312 315 311 312 311 311 312 311 313 309 311 312 313 309 313 315 315 317 319 322 322 331 326 318 319 316 313 308 312 311 311 314 313 313 313 312 312 312 312 311 311 311 312 310 312 312 317 307 304 314 318 314 314 315 317 319 320 321 319 321 325 329 336 342 342 343 344 345
312 310 311 312 311 312 312 311 311 311 311 311 311 310 307 307 307 309 310 310 311 313 313 310 311 312 313 314 313 312 314 309 309 317 317 313 313 314 314 315 318 323 322 318 318 325 319 310 315 313 311 312 312 312 313 311 311 311 311 312 312 311 311 311 311 312 313 314 314 313 318 317 316 317 318 320 322 321 322 328 328 328 327 335 339 341 341 343
305 306 308 312 312 311 312 311 310 310 310 312 309 309 309 308 307 309 311 311 310 311 315 312 311 313 313 313 315 314 315 314 316 315 318 318 316 320 314 314 315 318 320 316 316 322 316 315 313 312 311 310 311 312 312 311 311 309 310 312 312 312 312 312 312 312 315 314 314 314 315 314 318 321 323 323 322 322 324 322 320 325 328 331 336 337 340 340
310 311 310 307 309 310 311 311 310 310 308 309 309 308 309 308 308 310 310 313 312 311 312 310 312 314 313 314 314 313 313 313 314 314 315 314 315 316 317 315 317 314 315 316 316 318 314 318 316 313 307 309 310 310 310 312 311 310 310 311 311 310 309 311 311 315 314 312 315 314 311 310 316 320 322 323 322 322 319 320 321 328 331 331 332 336 338 340
311 314 311 311 307 307 308 309 311 308 306 309 308 308 308 308 309 310 311 310 313 313 313 313 314 315 313 314 312 311 312 313 314 315 316 316 317 317 317 316 316 317 315 315 318 315 314 316 311 311 306 307 310 311 310 309 309 307 308 311 312 312 313 313 315 316 315 314 311 308 309 316 318 319 317 317 317 318 321 325 329 331 334 333 333 335 338 340
Wind_Speed
19 19 19 19 19 20 20 19 19 19 19 19 18 18 17 17 16 15 14 14 14 13 13 12 11 12 11 11 11 10 10 7 5 8 9 7 9 9 8 2 11 13 13 11 10 11 10 10 11 10 8 6 5 5 5 5 3 4 5 5 5 5 6 6 7 4 9 8 10 10 7 7 9 8 8 8 9 9 8 7 6 5 6 10 17 18 17 17
19 19 19 19 20 21 20 20 19 19 20 18 18 18 18 17 17 15 15 14 13 13 12 12 12 11 11 10 9 8 10 7 8 12 19 6 8 8 6 11 12 15 15 10 13 13 10 11 11 12 8 6 3 3 5 4 4 6 3 1 7 4 10 6 7 6 5 9 10 8 6 5 7 7 7 4 8 9 8 8 10 12 12 15 17 19 18 17
20 20 20 19 20 20 20 20 20 20 20 19 19 18 18 18 17 16 15 14 13 12 12 11 10 10 9 9 8 8 9 6 9 15 14 17 13 9 8 15 13 14 14 10 10 11 8 6 11 12 7 6 4 5 6 5 6 2 6 6 7 8 8 5 4 6 5 9 11 9 6 6 7 5 3 3 5 7 7 8 10 12 15 15 17 17 17 16
20 20 20 20 20 21 20 20 21 21 20 20 19 20 19 18 17 16 15 14 13 12 11 10 9 8 8 8 6 7 5 8 10 7 8 3 14 14 10 12 14 14 11 7 6 8 6 2 6 9 3 7 5 3 7 7 6 3 5 6 9 7 9 6 3 6 5 8 9 9 8 8 7 5 2 5 6 4 6 6 9 14 17 18 18 17 16 16
22 21 20 21 20 21 22 23 23 21 21 20 21 21 19 18 17 16 15 13 12 11 10 8 7 7 6 6 5 6 7 6 2 9 7 5 10 12 12 11 12 13 11 6 6 7 7 7 7 5 7 5 4 7 4 5 3 3 8 9 10 4 8 6 7 8 9 9 9 9 9 10 8 8 6 3 4 6 6 6 9 14 17 19 19 18 16 16
21 22 23 22 22 21 22 23 23 23 22 22 21 21 20 19 17 16 14 12 11 10 8 8 6 6 6 4 8 5 5 5 4 4 4 5 9 9 10 12 12 11 8 8 9 6 8 8 8 8 6 5 7 7 8 3 5 6 5 6 5 4 11 7 9 9 10 9 9 7 9 8 8 10 10 10 11 9 8 10 14 15 15 15 16 16 16 16
22 22 22 22 22 22 23 23 24 23 22 21 22 22 20 19 16 14 13 11 10 8 7 5 4 5 4 5 5 6 10 4 1 6 6 6 9 10 8 8 8 9 10 9 9 9 8 8 10 5 3 3 4 5 7 7 5 4 7 6 7 8 11 9 10 9 10 10 10 9 8 8 8 11 9 12 11 12 12 13 15 15 15 15 16 15 15 15
22 21 21 21 22 23 24 24 24 23 22 21 22 22 20 18 16 14 11 10 8 7 6 5 6 6 5 6 4 6 10 8 7 5 5 6 9 12 8 10 11 10 11 10 8 8 6 9 10 5 6 4 6 7 8 10 6 9 8 7 9 10 10 10 9 11 12 13 11 10 10 9 10 11 10 12 12 12 14 14 15 15 15 14 14 14 14 13
21 22 22 22 23 24 24 24 24 23 22 22 22 22 21 18 15 12 9 7 6 5 4 4 3 5 4 5 7 7 9 1 5 4 5 9 11 14 14 11 12 11 9 6 5 3 7 5 4 6 5 6 3 9 8 8 7 6 10 10 10 11 11 10 11 12 12 9 10 12 13 13 15 15 13 11 12 13 14 14 14 14 14 14 14 13 13 12
23 24 23 23 23 23 24 24 24 24 23 23 23 22 21 17 13 10 7 5 3 3 4 4 5 6 6 5 6 8 4 3 3 3 3 8 12 15 16 11 14 12 9 6 6 6 9 6 4 4 5 5 3 6 5 7 9 9 12 11 12 12 11 9 12 12 11 11 11 12 13 13 8 4 9 9 11 13 14 14 13 12 13 13 13 13 12 12
23 23 24 24 23 24 25 24 25 24 24 23 22 21 20 16 11 6 4 3 3 4 4 5 5 6 5 6 8 7 3 1 2 3 4 10 13 15 14 11 12 10 8 6 6 1 2 4 4 3 4 4 5 9 2 9 14 12 14 13 12 11 10 9 11 13 10 10 11 12 13 9 5 6 10 11 10 12 14 14 13 13 12 12 13 12 10 10
23 23 24 25 24 23 23 25 24 24 24 23 22 20 18 14 7 2 4 3 4 4 5 6 7 5 5 8 10 1 1 4 2 4 6 10 10 9 7 9 10 8 9 9 6 3 1 3 5 4 2 5 6 10 10 12 13 13 14 11 12 12 11 9 9 8 9 11 9 11 15 10 8 12 12 12 10 11 13 13 13 12 11 12 12 11 9 9
23 23 23 24 24 25 23 24 24 24 24 22 20 18 17 10 3 2 4 4 4 5 6 7 7 3 5 8 9 3 1 1 4 6 6 5 5 3 6 5 5 4 5 9 7 3 1 1 3 3 5 3 5 2 8 8 12 12 10 9 11 11 9 7 6 7 10 7 2 1 2 9 11 12 11 11 10 10 11 12 11 11 11 11 10 10 9 9
23 23 24 25 25 24 24 24 24 24 24 22 20 17 14 5 3 3 4 3 6 5 6 7 5 4 5 2 7 4 1 2 5 7 7 6 9 8 6 6 4 4 3 5 5 3 2 1 4 4 2 1 7 12 10 9 11 8 6 9 8 8 8 10 7 8 6 8 3 3 0 8 11 12 12 10 11 11 10 11 11 11 10 10 10 9 9 9
22 24 24 25 26 24 23 23 23 24 23 21 19 16 12 2 2 4 4 4 6 6 7 7 4 4 7 1 4 4 1 3 7 9 7 11 11 10 9 8 8 5 3 6 5 1 0 2 4 7 5 5 11 11 10 9 9 7 8 9 9 7 8 11 5 8 4 8 2 5 5 8 10 12 12 11 10 10 10 10 11 10 9 10 9 9 9 9
22 23 24 24 25 23 22 21 20 22 23 21 17 17 12 5 5 5 2 3 6 9 6 6 4 6 8 6 5 3 5 7 8 8 7 7 11 10 12 10 8 7 6 6 2 1 2 3 2 5 9 8 10 9 10 7 7 8 9 10 8 7 8 9 10 9 3 2 2 6 6 7 7 11 12 11 12 10 9 9 10 11 10 9 8 8 7 8
23 22 23 25 26 25 23 21 19 21 20 19 18 13 6 4 5 4 5 8 5 5 5 3 1 3 5 5 4 7 8 5 5 7 8 5 5 8 12 12 9 10 7 6 3 4 4 6 6 5 6 9 9 9 10 9 9 9 9 7 9 10 8 6 10 9 7 5 5 2 2 5 12 12 12 11 11 10 9 9 10 10 8 8 7 7 8 8
23 23 23 23 24 25 25 20 20 19 18 19 16 10 5 5 5 7 7 7 2 4 6 4 5 4 4 6 10 10 8 8 8 8 8 6 5 12 12 11 10 11 10 8 5 8 7 6 8 9 9 8 10 10 10 10 9 10 10 8 9 8 11 7 7 10 7 8 5 5 3 8 12 12 11 12 11 10 9 9 9 9 10 8 8 7 8 7
25 25 25 26 26 26 23 20 20 18 17 19 14 5 5 4 6 6 5 5 5 4 5 7 6 6 2 14 5 8 7 7 7 10 9 9 9 8 6 8 12 13 11 11 8 9 8 5 8 6 12 10 12 12 10 9 11 11 12 9 10 10 9 8 7 6 11 7 7 5 4 9 11 11 11 12 10 9 9 8 8 8 8 8 8 8 8 8
26 24 24 23 23 24 24 22 20 18 16 13 3 5 4 5 5 5 5 7 9 12 10 1 9 3 3 9 9 7 7 9 11 9 11 8 9 12 12 13 13 14 12 11 12 11 5 11 11 11 11 12 13 14 13 8 7 11 13 12 11 11 11 7 5 6 9 6 7 6 4 9 11 12 11 11 10 8 8 10 8 8 8 9 9 9 9 8
24 25 25 25 24 23 24 22 20 17 15 7 7 5 5 7 8 6 9 9 12 11 11 8 8 7 2 3 8 12 12 10 9 11 12 9 11 14 12 13 14 12 12 13 11 7 7 12 12 13 13 14 14 9 4 3 4 9 9 10 9 9 9 12 9 7 8 8 6 6 7 9 11 11 11 10 11 11 10 10 10 10 9 8 9 9 9 8
26 25 24 24 23 24 23 22 20 18 11 5 5 7 2 4 5 4 4 7 4 8 9 9 4 8 5 6 2 3 10 11 11 14 9 11 13 14 13 14 16 14 12 7 7 9 10 13 11 15 5 5 4 8 9 8 9 10 10 10 9 9 4 7 7 8 7 8 4 7 8 8 10 10 10 10 10 9 10 9 9 10 10 9 9 9 9 8
25 25 25 24 23 25 26 23 21 15 3 4 5 8 3 4 2 1 5 7 11 7 9 9 10 10 9 5 7 6 13 14 15 15 13 12 15 14 16 14 15 12 13 14 11 10 12 11 16 10 7 8 7 7 10 9 9 9 10 8 9 7 9 9 8 9 8 8 6 8 9 7 8 7 10 9 9 8 7 8 7 7 10 10 11 10 9 9
25 28 25 23 25 26 27 24 23 7 5 6 9 8 4 3 3 3 6 6 7 4 9 10 10 8 10 12 8 13 14 12 14 18 15 13 14 10 13 16 16 12 13 15 15 11 11 11 8 9 9 11 12 10 11 9 9 9 9 8 9 10 12 10 9 10 8 7 7 8 9 7 8 10 9 9 7 8 10 9 8 8 8 8 9 9 9 10
26 27 24 24 24 24 28 22 6 2 6 9 9 6 1 3 4 5 6 6 7 6 5 4 4 6 7 3 13 13 13 10 13 14 15 16 15 9 12 13 11 12 14 15 15 13 8 10 11 9 11 11 12 12 13 12 11 10 11 11 10 7 10 10 12 12 8 8 10 11 8 7 8 11 12 10 9 10 10 11 11 11 10 8 9 9 9 8
27 25 26 23 23 26 30 6 4 5 9 7 1 4 1 4 4 6 5 4 6 6 8 9 7 9 7 10 14 13 12 10 13 13 14 15 10 14 6 9 9 13 15 17 12 8 5 8 7 11 12 13 14 13 15 13 9 9 8 13 6 7 6 8 15 10 10 9 9 11 9 7 8 12 13 12 13 13 11 12 13 12 11 11 11 10 10 11
25 25 25 21 20 21 11 2 6 10 10 2 5 1 4 6 3 8 5 4 8 8 8 5 9 6 6 15 15 12 12 12 8 11 16 12 13 5 10 10 9 5 8 9 6 9 5 9 7 7 12 14 13 12 10 12 9 6 5 3 4 7 9 10 12 11 4 2 5 12 8 8 6 8 12 14 14 15 14 14 14 13 13 14 13 13 12 12
24 25 22 19 17 12 7 9 11 8 6 4 1 3 5 4 3 7 5 5 4 5 5 7 3 3 5 17 16 12 4 20 12 14 16 14 11 11 12 13 14 10 11 8 11 8 13 11 11 12 12 11 12 8 11 10 6 6 4 6 7 7 7 10 9 7 3 6 6 7 8 9 8 3 8 14 14 15 17 16 16 16 15 15 15 14 14 13
23 23 23 22 21 20 10 8 5 8 3 3 2 5 4 4 8 6 4 7 4 3 4 7 1 8 6 13 17 9 10 15 11 14 10 12 12 4 14 13 14 13 13 16 6 11 5 9 12 12 11 10 8 8 9 3 5 3 7 8 7 4 5 4 5 4 4 7 10 9 8 9 9 7 5 10 13 15 17 18 18 18 17 16 16 16 15 14
25 25 23 22 16 5 6 7 11 11 7 7 8 6 4 5 7 7 6 6 4 4 4 5 8 12 13 16 15 11 11 11 4 14 14 12 14 8 3 6 8 10 12 11 9 7 6 3 4 6 5 7 12 10 5 3 8 12 9 9 8 6 4 2 1 3 4 9 9 9 11 10 9 6 9 10 11 14 14 14 15 17 18 17 17 17 15 14
25 22 20 18 7 5 6 7 10 9 7 7 7 7 4 6 7 5 9 2 3 6 4 11 7 12 18 18 14 13 10 13 12 16 14 13 13 11 7 8 6 8 10 11 7 7 7 6 8 3 2 9 13 11 7 8 13 12 8 8 7 5 4 5 5 4 8 8 4 3 6 10 12 8 6 8 10 12 12 13 16 19 20 18 17 16 17 16
25 24 20 13 10 5 7 2 7 1 1 6 7 5 5 8 7 9 6 7 6 8 10 11 8 13 18 17 13 15 11 13 13 17 14 13 13 12 12 10 11 12 10 12 10 10 11 10 7 9 3 12 12 10 6 8 10 8 8 9 7 5 6 7 5 9 8 7 5 1 5 8 12 11 14 9 4 8 8 9 12 17 19 19 19 18 16 15
27 25 27 15 11 11 15 15 8 5 7 9 6 6 7 8 9 8 7 4 1 3 5 4 12 15 16 17 14 15 12 13 15 17 16 15 12 13 15 12 16 10 12 14 12 13 10 8 10 9 6 7 12 10 8 8 9 9 9 9 8 6 8 6 8 7 7 6 5 0 3 10 9 9 11 13 11 9 9 8 8 10 16 18 18 17 16 15
27 26 15 4 9 11 8 5 6 8 9 7 8 6 8 9 8 2 7 7 4 3 3 5 10 13 16 14 13 14 12 11 16 15 18 14 13 14 13 9 10 13 9 15 11 14 11 10 10 13 9 11 12 10 12 8 11 11 9 9 10 7 6 8 7 8 10 2 5 5 4 4 9 3 4 4 5 3 3 7 7 7 8 13 17 17 18 17
31 24 12 8 9 11 14 11 6 4 6 7 8 8 9 9 9 5 9 7 6 2 5 3 11 13 14 15 12 16 12 9 14 13 15 13 14 13 14 13 12 11 7 10 9 10 13 9 13 8 2 17 14 3 9 10 9 7 5 3 7 10 5 8 6 5 6 3 7 7 7 4 6 5 5 2 3 3 4 7 8 9 7 9 13 17 18 17
21 6 4 5 4 5 10 9 9 5 7 9 9 9 11 9 6 6 0 4 2 3 2 6 8 14 12 12 8 16 4 5 15 11 14 15 14 14 14 12 13 15 8 10 10 9 4 6 13 10 6 13 13 7 6 5 9 9 7 10 2 6 4 1 4 2 5 5 10 5 7 9 6 10 10 6 6 7 8 9 10 10 11 10 12 15 17 17
8 9 5 4 7 5 7 8 8 6 6 10 10 10 9 9 8 7 3 5 6 4 6 9 11 12 13 13 11 15 14 9 15 13 12 14 14 17 16 12 13 16 14 10 8 9 8 7 11 11 11 3 3 7 6 3 4 7 9 6 7 4 4 5 6 5 7 7 2 4 8 8 5 2 6 6 7 6 7 10 11 11 11 13 12 13 15 17
11 7 5 5 1 2 6 8 11 6 7 10 12 10 4 9 2 8 3 6 6 4 5 9 7 11 11 12 14 17 15 13 15 14 10 15 7 14 11 10 11 12 15 14 8 10 10 8 8 9 9 7 7 8 8 3 4 4 7 13 11 8 11 7 6 8 7 7 7 7 6 8 6 5 7 8 6 4 6 8 9 11 13 13 13 13 14 15
7 5 4 4 3 3 6 10 9 9 9 10 10 11 8 9 2 5 5 7 5 5 7 6 5 10 8 11 11 17 16 15 15 15 12 13 12 12 15 11 12 14 14 14 12 4 9 9 8 5 9 9 10 10 12 10 7 3 2 8 4 7 4 8 6 7 3 10 4 4 6 7 9 4 3 4 2 4 3 6 9 11 14 13 13 14 15 16
6 6 3 6 4 3 7 10 8 8 10 12 10 9 3 8 8 5 5 4 5 6 4 2 4 4 10 8 10 13 14 18 13 13 15 10 11 9 10 12 8 15 14 14 13 8 7 9 5 7 6 11 11 10 12 11 11 11 9 8 8 6 3 5 1 6 6 7 6 7 6 5 5 4 1 2 3 3 5 6 7 8 10 13 13 13 14 16
4 5 1 6 6 7 8 7 9 12 11 10 10 5 7 7 5 5 4 3 7 6 8 7 4 6 5 8 9 9 11 14 12 11 12 11 13 8 8 11 8 11 8 11 14 10 9 8 9 9 9 8 11 13 5 5 13 12 12 11 10 9 8 8 8 5 5 5 4 4 7 7 4 4 4 4 3 4 4 5 5 7 9 11 12 14 14 14
5 6 4 3 4 5 5 9 9 9 9 10 8 7 4 2 8 7 6 3 6 7 5 7 7 8 5 7 6 10 10 14 12 11 12 11 13 12 6 3 10 11 12 11 13 12 11 6 11 9 10 11 4 7 1 3 2 5 12 12 12 11 9 8 9 5 5 5 5 6 7 7 7 6 5 2 1 3 2 4 5 5 7 10 12 14 15 15
4 6 4 2 2 5 6 8 7 7 10 4 6 4 2 5 5 2 5 3 7 4 6 7 5 6 7 5 2 7 12 10 13 13 10 14 9 10 7 8 6 12 13 11 15 5 1 7 10 10 4 8 6 3 3 1 4 7 10 9 8 12 10 10 8 3 6 4 6 5 8 5 7 4 3 3 1 3 3 4 5 5 6 9 12 13 14 14
5 6 2 5 2 5 7 8 8 9 10 4 6 4 3 4 4 6 7 4 4 3 5 5 6 7 4 2 3 6 11 8 8 8 9 8 5 7 8 8 10 8 11 8 11 12 11 9 11 8 7 8 5 5 6 5 7 10 10 12 13 10 9 4 4 5 9 6 9 7 8 7 8 1 2 3 4 6 6 6 4 6 5 8 10 12 13 14
6 4 4 2 4 7 9 4 4 8 10 8 7 10 7 8 1 4 4 5 3 6 6 6 4 4 4 1 3 2 4 6 7 8 5 8 4 4 6 4 8 8 13 6 6 11 12 9 11 12 13 13 12 12 12 11 12 11 13 11 13 14 11 9 9 6 8 5 8 7 8 7 6 2 5 4 5 5 5 5 5 5 6 5 7 10 12 13
4 3 5 5 3 6 5 3 5 5 4 6 7 4 3 6 7 3 3 3 2 4 6 7 6 6 6 6 7 7 7 5 6 6 7 8 5 4 3 5 7 9 2 5 4 10 7 6 12 12 12 12 11 10 10 12 11 14 16 16 16 17 16 13 10 6 9 4 8 7 12 12 6 6 5 2 4 6 8 7 8 7 7 6 6 8 10 11
4 3 3 0 4 4 2 2 3 6 6 2 5 2 7 7 1 3 3 5 3 4 5 6 4 7 5 9 8 8 7 8 5 4 11 9 6 4 4 3 6 7 4 5 6 7 3 8 12 14 14 14 5 2 7 15 15 16 16 17 17 16 15 15 11 11 4 4 11 3 5 12 13 11 9 7 7 7 7 8 7 7 6 8 9 9 10 11
3 2 2 3 4 2 6 4 3 3 1 5 1 2 1 5 6 4 5 1 2 1 5 5 6 2 3 6 4 8 9 7 7 10 5 0 6 8 7 6 6 7 8 8 10 8 8 10 13 15 17 9 4 6 6 9 12 13 15 14 17 17 16 17 15 12 6 10 11 2 4 8 10 12 11 9 8 9 10 10 9 7 5 7 9 11 12 12
3 2 1 2 4 3 4 4 5 4 3 3 2 3 4 4 1 2 4 1 4 2 3 5 3 4 4 3 4 4 7 9 10 3 1 4 9 8 7 7 4 8 9 7 10 2 5 10 4 12 10 9 6 7 7 11 9 12 14 14 15 16 17 17 16 12 11 12 11 6 4 8 13 14 12 11 8 9 9 7 8 9 10 9 10 11 12 13
5 5 3 3 3 2 3 2 2 4 5 0 4 2 1 1 1 1 1 3 2 2 4 3 5 6 4 4 4 2 7 7 6 2 4 4 5 4 7 4 3 7 8 8 8 4 7 3 2 7 9 7 6 6 9 10 10 12 11 12 13 13 14 14 12 6 7 8 8 8 9 11 11 10 7 5 5 6 7 10 13 12 9 9 11 12 13 14
4 3 4 5 4 2 4 1 2 3 4 4 5 4 2 2 3 3 3 3 6 5 6 7 7 5 1 2 5 6 6 7 6 5 6 5 3 5 3 3 6 5 8 6 7 7 9 2 4 7 10 7 6 8 8 9 11 11 11 11 11 13 12 9 9 7 9 8 6 8 10 10 8 5 1 6 8 10 12 13 12 8 8 8 11 12 12 13
4 2 4 4 2 3 3 2 1 4 5 5 5 3 3 4 3 3 4 2 2 5 7 7 6 5 4 2 6 8 10 9 8 7 6 6 6 7 5 6 7 5 4 6 6 7 9 5 7 8 10 9 8 7 10 10 10 10 12 12 13 12 10 9 8 7 9 7 8 9 9 6 6 7 11 11 11 11 11 10 8 7 7 8 10 10 11 12
Wind_Direction
340 338 337 336 334 333 329 328 327 326 328 329 331 330 329 326 324 320 316 310 308 307 305 306 310 312 317 317 319 321 313 296 222 219 234 251 67 135 168 103 158 151 169 182 143 160 173 189 198 176 199 198 204 229 139 218 241 228 219 164 97 92 101 124 114 67 101 135 134 153 148 123 132 133 116 126 116 112 118 94 106 103 79 96 115 129 136 142
337 337 336 335 334 331 329 328 327 326 329 327 328 328 327 325 322 320 314 312 308 304 304 305 308 311 314 316 315 324 309 268 248 253 246 96 142 157 171 150 151 159 176 174 174 186 179 186 191 180 199 217 149 173 171 159 214 243 153 28 96 90 79 99 86 100 162 121 133 135 147 125 108 140 155 168 127 128 116 114 114 110 106 112 124 133 139 148
337 337 336 333 331 329 328 327 326 328 327 326 328 326 325 323 321 317 314 310 306 305 301 306 309 308 312 317 311 305 284 259 242 252 252 162 150 171 149 153 163 176 194 180 199 208 233 186 177 191 207 238 179 148 216 134 213 211 294 88 86 72 107 82 122 121 42 116 126 129 120 105 110 126 149 225 131 156 133 132 134 131 134 137 136 139 143 153
337 337 335 334 330 328 327 327 330 329 328 327 326 326 324 322 319 315 312 308 305 302 303 302 303 309 304 305 329 294 287 272 255 239 84 73 167 162 179 166 176 191 218 254 218 228 243 192 195 222 222 246 140 214 192 128 237 121 259 95 104 115 120 92 97 101 104 116 123 121 116 113 108 101 173 87 161 123 111 130 148 144 146 144 144 144 151 156
338 336 333 330 328 329 329 332 333 330 328 327 326 325 324 322 317 313 310 305 302 302 300 300 299 298 308 290 282 278 263 243 214 92 63 117 173 170 170 171 175 194 223 213 213 229 223 218 202 216 247 194 173 188 138 159 306 152 51 78 105 122 94 92 91 97 99 109 126 132 140 102 112 76 58 359 33 55 46 94 132 143 147 149 149 151 155 160
337 335 335 331 330 330 331 332 331 330 328 326 326 326 323 321 317 311 306 303 298 299 297 293 290 281 284 295 273 260 239 227 61 80 90 117 154 176 178 172 183 213 208 206 220 206 212 198 213 204 198 217 180 185 124 152 214 113 117 90 82 62 99 104 104 115 130 130 119 114 99 128 104 83 61 61 55 64 63 94 122 135 144 147 147 153 160 163
339 336 332 331 329 331 332 332 331 330 328 325 326 327 325 321 317 311 302 297 294 291 293 281 283 265 267 279 252 242 236 288 186 99 142 169 184 177 180 175 180 211 202 205 214 210 198 210 224 189 198 164 174 127 139 155 219 143 108 109 95 109 101 109 113 134 108 107 105 116 140 110 119 91 74 70 72 78 87 104 119 131 143 148 153 161 164 167
335 332 332 330 331 332 334 334 333 331 328 327 328 328 325 321 317 309 300 291 289 282 275 264 267 254 263 235 227 207 227 241 82 122 111 181 177 180 173 184 192 197 204 219 204 206 203 214 200 176 221 212 131 163 147 154 177 119 123 120 105 105 108 118 124 113 113 110 115 111 103 88 86 96 94 80 89 94 102 113 124 132 142 150 155 163 164 167
333 332 333 332 333 334 335 334 333 331 329 329 330 329 326 323 317 308 295 286 280 271 259 250 227 237 219 276 261 247 216 77 35 85 143 167 169 171 177 177 195 197 204 206 230 230 228 177 211 243 145 162 164 145 177 157 120 111 118 133 126 114 120 123 118 112 107 109 112 113 104 104 107 105 79 94 97 105 114 119 128 136 146 151 157 160 163 168
338 336 333 333 333 333 336 335 334 332 331 330 331 330 328 323 317 306 290 270 256 254 255 218 232 224 233 244 228 231 91 350 82 124 162 170 161 165 188 185 181 193 192 188 191 212 231 146 233 139 108 94 214 144 180 228 100 130 133 129 123 120 122 129 115 111 107 106 116 114 117 115 127 179 104 102 112 116 121 124 133 141 146 151 153 156 162 168
337 335 334 333 333 334 336 335 335 333 333 331 331 331 328 328 319 298 254 224 217 216 204 210 173 208 233 242 225 202 57 235 78 111 167 164 164 175 185 189 189 192 195 169 193 255 78 144 154 147 229 107 157 128 157 97 129 131 122 120 120 122 117 122 122 113 114 109 110 109 105 112 103 99 111 125 127 128 123 130 136 139 142 147 150 152 161 171
337 336 335 333 332 334 336 336 335 334 333 331 330 329 330 336 334 295 211 195 195 196 196 195 194 242 270 240 227 102 296 45 122 136 140 158 167 183 189 183 189 203 189 178 169 155 347 107 218 243 163 177 128 114 111 135 133 139 138 132 127 130 127 148 132 120 123 121 125 125 124 108 108 100 118 128 136 137 131 132 137 135 137 143 147 149 163 171
334 335 333 333 335 335 335 336 335 334 333 330 329 327 331 344 6 175 157 174 164 166 173 172 210 255 271 202 233 84 88 50 134 151 152 175 162 177 170 182 203 204 231 179 155 148 90 144 284 225 98 269 117 234 123 167 140 157 152 133 151 144 135 139 143 136 137 123 130 223 120 92 107 122 129 139 143 143 138 138 140 140 144 144 151 150 163 165
334 334 334 335 335 335 335 335 334 334 332 329 328 324 329 3 73 117 168 182 168 172 177 184 254 248 259 243 94 67 6 192 149 176 188 174 165 150 164 172 181 180 205 136 110 110 154 322 268 92 62 324 121 126 149 148 164 170 152 163 167 176 147 155 172 148 174 126 230 189 78 104 122 127 137 146 151 153 145 143 144 147 147 147 155 153 161 164
333 333 333 334 335 334 334 335 334 332 331 328 324 322 316 202 134 133 129 147 175 172 177 197 246 253 228 124 93 58 253 187 185 189 176 179 155 147 161 162 161 144 120 113 120 116 305 243 204 167 118 107 137 165 141 160 177 153 180 190 168 189 143 159 170 179 187 140 193 265 81 98 127 133 142 151 159 163 150 148 149 153 156 154 158 162 162 164
332 332 332 333 333 333 333 332 331 331 330 325 323 315 295 215 152 142 154 125 165 183 190 219 200 244 290 175 112 153 184 196 184 168 169 200 170 160 152 156 139 140 155 109 101 141 201 225 264 95 129 167 167 169 159 153 190 183 210 164 181 191 152 177 179 186 181 162 166 303 96 134 130 137 141 153 160 167 156 155 154 155 161 163 166 168 168 167
331 330 331 333 334 333 332 329 327 331 326 322 320 305 284 176 172 177 155 161 166 194 234 290 198 220 276 69 152 198 180 154 93 158 171 216 260 156 151 146 156 145 131 122 149 186 166 205 120 167 183 188 179 169 177 190 170 197 229 186 168 197 152 191 154 194 177 221 158 199 156 81 124 146 145 155 162 170 161 160 159 159 163 170 173 179 174 180
330 330 330 330 331 331 330 326 327 326 326 321 314 288 260 219 186 161 160 198 187 220 234 261 262 238 207 170 195 183 145 140 182 158 168 171 233 161 162 163 151 152 153 145 154 204 175 178 190 178 179 200 185 189 208 189 190 187 198 201 168 201 173 180 168 173 190 177 240 172 103 129 135 146 152 155 164 171 167 165 162 164 164 173 186 182 186 184
330 329 332 333 331 329 327 325 324 326 325 320 304 269 249 239 224 252 242 173 197 185 209 174 199 206 5 168 123 119 159 136 142 165 161 170 179 175 166 158 160 157 173 187 159 203 178 196 205 189 193 185 196 208 210 208 182 200 199 191 175 200 179 207 162 155 191 183 216 193 187 145 148 150 156 155 163 175 172 164 164 169 167 175 182 187 183 184
329 328 328 328 329 327 327 323 320 322 331 319 206 215 203 214 199 175 195 218 243 261 316 282 211 317 151 147 159 98 100 164 158 186 157 159 170 171 166 169 162 186 175 198 158 205 175 201 192 197 197 187 198 214 221 252 187 197 198 201 188 195 187 191 176 171 192 204 222 187 199 155 160 152 156 158 157 173 183 165 175 172 175 177 181 183 185 180
326 329 328 329 329 325 324 323 319 320 325 287 272 258 316 356 329 353 334 270 239 250 259 242 234 252 314 102 141 163 158 171 198 164 177 172 178 168 161 176 176 188 193 194 173 134 211 214 203 203 204 197 200 207 233 222 224 207 204 210 206 212 200 175 183 175 180 226 172 185 201 173 160 156 156 160 167 176 179 179 179 178 178 180 182 184 186 184
329 329 328 328 327 326 321 320 318 320 312 258 252 282 324 12 355 327 297 291 253 223 230 245 236 241 240 236 154 210 183 169 187 172 158 193 172 193 159 193 177 196 170 182 146 176 204 217 202 209 157 78 123 200 207 217 204 205 212 197 224 201 77 140 177 175 178 214 208 187 201 169 161 158 159 172 176 171 176 185 184 178 181 182 188 189 187 191
330 328 329 328 328 326 322 316 316 313 268 222 258 273 317 4 318 279 236 282 275 224 223 215 212 221 213 192 199 196 192 186 177 170 169 205 169 213 160 198 185 189 172 195 191 183 202 206 212 175 142 173 158 192 205 211 228 208 206 214 212 170 186 191 184 182 180 211 202 189 212 159 161 166 172 182 183 161 170 179 189 192 189 190 193 190 191 192
330 331 328 329 328 326 318 318 306 274 219 279 283 275 32 319 277 189 229 276 303 201 208 206 222 208 191 188 172 191 198 178 184 174 167 192 184 191 180 199 191 189 187 192 206 196 207 197 138 143 173 185 188 188 200 211 210 217 231 219 230 177 206 240 165 183 174 202 255 184 215 178 185 185 184 179 183 179 174 180 193 203 209 209 199 200 198 198
330 330 328 327 331 327 316 318 273 233 327 277 245 248 219 306 270 251 276 269 222 228 156 199 220 222 162 70 147 190 200 172 197 169 171 193 179 167 202 194 207 192 192 191 203 204 159 100 129 157 176 193 196 193 207 211 211 201 218 245 256 251 227 228 147 166 188 196 207 200 213 217 194 201 197 175 183 193 184 191 196 195 203 208 211 209 203 206
330 328 330 329 331 332 309 282 81 327 307 290 44 131 249 301 271 237 270 258 258 134 157 191 174 163 156 174 163 192 185 187 192 167 173 198 169 201 139 200 219 185 197 184 201 215 119 131 162 174 179 191 200 205 197 214 228 201 182 210 238 265 223 180 168 189 215 219 180 216 230 223 192 202 199 187 192 194 189 203 201 196 199 203 212 209 204 199
329 327 327 328 333 344 329 13 1 310 279 137 128 343 294 286 251 230 250 230 240 140 169 72 195 123 231 154 175 174 184 169 135 153 178 185 194 201 209 185 189 264 175 179 201 201 156 170 166 190 190 195 201 210 178 211 233 203 64 146 201 217 188 186 195 211 215 188 155 205 219 253 226 211 206 195 197 197 199 202 208 202 201 203 206 206 204 199
325 325 324 327 328 334 278 307 311 295 291 39 327 321 294 295 246 230 257 264 198 150 152 163 346 108 239 165 171 192 116 127 166 171 187 170 207 164 239 180 198 169 161 181 198 129 184 164 185 179 193 198 205 200 155 203 253 44 102 134 161 188 187 190 201 204 136 202 204 204 205 239 245 242 191 194 206 204 208 206 205 207 205 204 205 207 203 202
322 323 324 325 322 293 265 242 270 263 6 9 334 310 293 265 235 245 270 265 86 207 16 163 130 187 156 166 187 201 144 162 177 158 164 177 209 226 207 188 199 171 177 201 205 134 179 193 184 191 190 190 82 98 117 154 181 126 96 103 99 112 169 190 208 189 197 219 219 215 190 254 248 187 191 193 221 214 213 210 209 204 205 203 205 205 205 199
319 320 321 326 316 233 194 227 240 248 297 303 300 296 281 231 229 228 181 242 145 162 194 77 208 161 165 173 185 189 186 175 115 144 170 184 176 237 311 316 180 166 185 205 268 118 115 63 0 228 226 93 104 74 72 76 101 141 131 125 130 139 129 182 232 226 210 228 239 204 189 237 267 213 195 205 216 223 216 211 209 205 205 205 204 203 202 199
316 313 315 321 286 300 302 258 243 239 244 281 273 268 232 224 241 231 219 43 266 102 169 171 152 163 171 181 182 186 200 170 159 162 169 188 180 213 187 177 215 190 186 190 180 149 149 142 187 134 151 126 109 99 81 125 138 157 164 149 138 121 159 182 177 204 229 232 161 185 216 208 250 246 233 196 230 226 229 217 204 207 204 203 201 202 201 197
314 311 305 299 256 271 244 242 58 63 330 301 273 235 222 232 219 236 210 111 239 142 201 174 174 182 179 184 186 180 182 170 164 173 174 184 174 189 186 188 177 179 187 184 170 161 169 173 129 131 162 155 137 122 108 140 167 188 173 180 198 163 195 195 184 208 218 264 104 165 196 229 232 259 278 284 220 223 228 239 214 205 206 200 200 200 197 195
315 310 304 276 238 217 234 258 312 306 301 303 268 228 229 252 231 200 222 170 149 208 138 217 174 185 183 185 186 179 180 183 171 180 183 182 188 194 192 209 180 204 184 184 168 182 158 118 157 131 171 204 173 177 156 173 186 202 189 195 210 191 211 223 214 239 269 198 156 279 171 260 292 259 236 257 265 232 216 221 237 220 206 201 198 194 196 195
312 311 305 254 201 214 225 234 254 263 283 285 243 206 239 247 241 51 248 208 62 144 150 209 172 193 185 195 176 174 176 179 173 180 186 178 198 187 189 231 219 200 249 176 197 185 168 178 173 161 181 176 202 196 178 195 185 201 204 201 222 229 227 222 225 230 231 255 113 121 220 252 254 50 109 81 57 10 230 226 213 217 227 211 200 197 195 193
311 297 264 257 238 238 233 233 248 237 225 233 216 221 228 237 248 219 207 200 180 199 193 128 199 186 185 207 168 182 196 150 194 170 192 186 195 196 189 192 199 244 190 189 189 203 193 197 161 169 95 171 198 106 198 189 196 188 221 249 234 234 202 264 5 298 297 225 199 169 244 222 256 115 171 158 157 180 188 212 224 217 207 212 208 202 196 191
302 305 260 241 226 209 200 209 217 218 214 218 216 211 225 231 234 203 25 14 117 268 114 181 211 198 187 195 160 195 168 254 177 199 194 202 194 205 190 188 195 208 196 215 136 211 169 189 123 122 162 192 190 166 191 194 211 152 198 214 214 10 258 214 216 321 275 269 264 173 232 234 241 249 232 214 243 241 214 209 212 218 217 211 212 209 201 192
312 310 260 217 225 174 167 183 181 193 212 232 219 221 226 233 263 307 34 293 26 317 238 205 186 212 186 193 185 196 177 217 173 201 188 197 201 211 193 197 195 194 221 227 160 235 207 144 153 151 150 114 80 172 141 182 317 150 217 182 96 35 331 241 262 148 239 260 275 189 249 250 211 283 147 169 233 230 218 215 215 210 208 208 208 209 202 193
311 287 269 252 68 147 176 175 172 184 209 226 225 238 206 251 183 279 343 277 229 213 275 236 139 229 196 199 188 189 174 207 165 201 201 178 214 188 201 194 180 215 209 223 262 168 230 171 158 187 170 140 167 162 166 130 258 268 284 125 206 171 218 191 253 244 258 249 274 197 228 260 262 234 173 185 226 235 222 205 210 205 209 210 205 200 195 191
273 277 241 74 14 157 166 173 180 179 209 222 224 217 212 244 244 264 295 302 267 297 256 224 289 186 252 206 190 190 173 204 164 199 207 169 216 164 212 203 184 209 211 217 221 176 204 244 141 162 160 153 178 195 202 180 171 231 218 186 231 259 236 180 210 297 289 286 268 250 170 267 185 237 65 294 290 278 268 191 211 211 207 206 199 194 189 185
273 271 157 28 75 142 161 178 181 185 213 225 212 230 177 213 229 247 257 261 271 249 232 282 205 237 206 257 208 185 180 208 180 195 216 145 212 146 213 193 211 187 211 207 228 192 207 232 214 153 142 159 200 189 220 190 188 190 211 204 187 219 8 301 175 252 282 291 298 306 277 272 89 100 210 255 270 265 244 215 209 216 210 204 199 192 186 186
274 264 101 46 79 129 166 194 188 195 211 229 253 248 175 220 200 215 240 241 273 246 281 297 302 248 196 197 223 210 178 210 202 201 199 169 205 169 204 199 197 177 179 195 222 184 220 178 225 147 187 201 211 192 253 275 199 194 206 214 202 189 195 228 223 178 234 246 268 259 267 289 108 154 157 257 239 229 215 242 216 209 207 196 192 191 187 188
270 251 94 76 135 213 254 189 194 202 221 224 227 219 198 132 241 251 256 212 250 275 207 272 258 270 241 238 239 180 201 196 197 209 192 218 179 246 112 178 193 169 187 196 203 192 224 172 229 181 198 209 128 92 29 331 301 246 217 221 204 214 224 226 267 169 206 232 278 276 295 279 111 145 179 239 269 235 267 252 240 211 202 194 192 191 187 188
272 311 49 118 173 243 257 208 182 204 223 211 45 237 218 222 246 157 255 239 265 227 269 243 257 253 221 246 194 215 198 200 199 207 185 212 195 201 118 182 179 184 208 195 201 142 161 212 211 230 108 88 111 121 123 88 245 213 214 255 236 226 219 240 251 141 242 145 234 222 249 282 115 81 142 136 238 276 261 263 269 238 201 189 189 191 186 187
311 294 255 158 219 222 242 213 191 207 218 187 245 266 196 287 228 220 225 217 262 240 263 274 240 240 334 300 239 234 184 212 178 228 206 206 200 79 138 171 184 195 213 160 210 144 214 194 231 193 188 200 169 171 176 170 215 228 227 214 232 246 244 231 72 143 251 224 250 274 277 291 107 170 172 151 211 221 221 229 232 255 223 201 189 190 185 184
285 243 244 233 187 201 226 271 260 211 207 224 215 223 203 206 233 304 305 268 263 273 273 252 324 350 255 301 248 267 182 310 172 199 338 189 158 119 141 210 210 225 215 36 345 150 221 172 201 214 209 202 202 205 205 190 208 219 232 223 210 221 208 207 226 198 239 236 232 251 265 283 125 181 171 180 195 215 240 259 237 217 241 233 195 191 186 183
308 284 167 194 184 191 250 300 288 296 217 206 220 216 227 228 160 151 259 231 277 281 270 289 283 276 265 219 212 206 201 200 293 157 206 179 148 153 132 202 212 226 67 101 197 182 226 196 203 222 224 220 222 226 202 218 199 214 206 210 202 213 219 220 246 236 237 157 222 218 248 284 268 206 181 220 227 245 253 235 232 229 210 211 208 195 192 191
294 315 14 331 162 217 202 208 257 234 254 181 231 154 218 237 295 189 145 242 124 312 280 255 286 262 216 221 211 204 196 201 194 212 201 206 146 113 143 231 195 220 114 191 221 204 179 212 207 220 233 243 256 140 190 217 227 213 217 212 213 208 209 217 222 237 176 190 250 201 202 251 268 279 301 298 285 283 276 284 278 241 219 208 199 199 197 192
271 47 316 16 297 164 199 172 359 261 229 223 209 215 266 227 216 235 167 213 292 38 282 157 225 247 321 326 295 214 173 207 187 213 158 167 167 149 157 162 177 156 183 209 201 211 210 223 203 217 221 222 226 230 197 221 235 233 226 213 204 201 204 218 219 226 194 250 268 75 196 238 267 285 301 299 295 284 279 286 293 298 257 216 205 201 198 198
331 8 37 339 273 37 347 356 318 309 196 241 141 228 216 234 138 50 354 304 218 80 342 245 142 360 334 314 301 252 177 205 193 143 312 181 216 184 171 151 140 169 191 180 188 222 228 232 176 219 224 208 192 213 204 231 223 230 232 214 205 200 203 214 222 226 230 250 267 254 182 259 279 292 298 297 295 286 290 293 283 264 253 233 213 207 205 197
29 335 11 344 278 315 355 298 284 236 199 104 241 128 318 209 40 101 150 319 235 91 6 315 356 350 341 312 275 298 43 20 354 81 33 313 176 254 215 233 144 175 190 186 186 157 240 152 211 201 214 197 181 180 199 222 214 223 216 204 199 199 206 210 234 209 223 245 255 270 272 274 282 288 276 282 281 284 272 269 270 274 271 245 228 218 210 204
347 347 323 305 274 63 307 298 242 243 203 180 225 136 226 120 44 10 84 30 24 41 16 10 357 331 49 120 90 57 26 2 326 317 332 308 319 40 324 113 352 183 189 171 198 159 214 177 200 194 222 192 178 193 185 202 211 204 192 193 190 194 204 197 225 195 220 235 239 255 265 270 270 278 262 283 287 270 262 257 258 268 273 261 245 236 224 213
309 193 244 286 289 62 287 148 235 231 199 63 4 74 329 81 17 321 203 104 37 40 15 348 352 314 165 141 48 11 341 320 307 305 312 302 284 290 276 285 307 323 206 191 183 198 203 178 192 196 224 203 157 199 182 187 204 210 200 194 195 198 224 210 222 203 228 248 247 247 260 275 343 328 292 292 289 284 275 267 269 273 274 267 255 242 233 219